Weather in Karabash

Russia / Chelyabinsk Oblast     55°29′26″N   60°12′10″E
temp.,
°C
wind,
m/s
gust,
m/s
humid.,
%
clouds,
%
prec.,
mm/h
press.,
hPa
HPBL,
m
17 june, thu
thu1723:00+16sw3576100 1.8 101280
02:00+16wsw2375100 0.0 101154
05:00+16ssw3980100 0.0 1009167
08:00+19w1972100 0.2 1008312
11:00+24w375098 0.2 1007960
14:00+24wnw5866100 0.5 10061263
17:00+22nw4678100 1.5 1006829
20:00+17nnw5118161 1.5 1007792
18 june, fri
fri1823:00+14wnw512762 1.5 1009431
02:00+12nw4116375 0.0 1011436
05:00+11nw396715 0.0 1012386
08:00+14nnw485183 0.0 1014952
11:00+17n58376 0.0 10152417
14:00+17nne684392 0.2 10161853
17:00+18n69328 0.2 10172432
20:00+16nnw374576 0.0 1018386
19 june, sat
sat1923:00+10w22619 0.0 102027
02:00+8wnw24705 0.0 102186
05:00+8wnw3107063 0.0 1022221
08:00+13wnw41158100 0.0 1021557
11:00+13w41165100 0.0 1021675
14:00+15wnw61159100 0.0 10201076
17:00+18wnw5125798 0.0 10181378
20:00+15wnw51476100 0.2 1017860
20 june, sun
sun2023:00+14wnw31198100 5.9 1016445
02:00+14w2898100 3.5 1015332
05:00+16wnw51397100 4.4 1014547
08:00+16wnw5149552 0.2 1014672
11:00+22nw71269100 0.3 10131152
14:00+25nw7134918 0.1 10122275
17:00+25nnw611404 0.1 10132243
20:00+20nnw410470 0.0 1015761
21 june, mon
mon2123:00+15nw311600 0.0 1017267
02:00+11wnw21680 0.0 101914
05:00+10wnw22720 0.0 102021
08:00+17wnw35524 0.0 1020440
11:00+22nw47395 0.0 10191118
14:00+25nw574045 0.0 10172181
17:00+25wnw475223 0.0 10161404
20:00+22wnw61165100 0.0 1015786